Powrót do katalogu

STARLINK-35141

AktywnyŁącznośćVLEO
NORAD 65644·PAYLOAD·🇺🇸 United States

Wystrzelony Sep 18, 2025 z Cape Canaveral Space Force Station

Loading…

Następne Przeloty (najbliższe 24 godziny)

TLE

ŚwieżeSource: CelesTrak SupGP

Epoka: Sep 14, 2026, 21:05 UTC

1 65644C 25210Y   26257.87895833 -.00055066  00000+0 -17707-2 0  2572
2 65644  53.1562 147.5735 0001434  88.7364  40.4215 15.31730499    18

Śledź STARLINK-35141 w czasie rzeczywistym z AllMySat

Download on the App Store